Regional Weather Roundup
Issued by NWS Sioux Falls, SD

Home | Current Version | Previous Version | Text Only | Print | Product List | Glossary On
Versions: 1 2 3 4 5 6 7 8 9 10 11 12 13 14 15 16 17 18 19 20 21 22 23 24 25 26 27 28 29 30 31 32 33 34 35 36 37 38 39 40 41 42 43 44 45 46 47 48 49 50
000
ASUS43 KFSD 020510
RWRFSD

WEATHER ROUNDUP FOR SE SOUTH DAKOTA/SW MINNESOTA/NW IOWA
NATIONAL WEATHER SERVICE SIOUX FALLS SD
1200 AM CDT SAT AUG 02 2014

NOTE: "FAIR" INDICATES FEW OR NO CLOUDS BELOW 12,000 FEET WITH NO
SIGNIFICANT WEATHER AND OR OBSTRUCTIONS TO VISIBILITY.


SDZ038>040-050-052>070-020600-
SOUTHEAST SOUTH DAKOTA

CITY           SKY/WX    TMP DP  RH WIND       PRES   REMARKS
CHAMBERLAIN    DRIZZLE   65  63  91 SE9       30.09F
HURON          CLOUDY    70  58  65 SW10      30.10R
MADISON        FAIR      63  63 100 S5        30.13R
MITCHELL       CLOUDY    71  59  65 W10       30.13R
SIOUX FALLS    PTCLDY    64  58  80 CALM      30.12S
WINNER         FAIR      69  59  70 SE10      30.09F
YANKTON        MOCLDY    64  61  88 E3        30.11S
$$

MNZ071-072-080-081-089-090-097-098-020600-
SOUTHWEST MINNESOTA

CITY           SKY/WX    TMP DP  RH WIND       PRES   REMARKS
FAIRMONT       CLEAR     63  55  77 SW3       30.11S
JACKSON        CLEAR     61  57  88 S3        30.13R
LUVERNE        CLEAR     63  59  88 CALM      30.13S
MARSHALL       CLEAR     66  57  72 SW6       30.10R
MONTEVIDEO     CLEAR     64  61  88 SW3       30.10R
PIPESTONE      CLEAR     68  59  73 CALM      30.14R
REDWOOD FALLS  CLEAR     69  62  78 SW3       30.09R
TRACY          CLEAR     67  60  78 SW7       30.12R
WINDOM         CLEAR     63  59  88 CALM      30.12R
WORTHINGTON    CLEAR     63  57  82 SW3       30.15R
$$

IAZ001>003-012>014-020>022-031-032-NEZ013-014-SDZ071-020600-
NORTHWEST IOWA

CITY           SKY/WX    TMP DP  RH WIND       PRES   REMARKS
CHEROKEE       CLEAR     62  62  98 CALM      30.12R
DENISON        CLEAR     63  63 100 CALM      30.11S
ESTHERVILLE    CLEAR     61  58  90 SW5       30.12R
LE MARS        CLEAR     61  59  94 CALM      30.13R
ORANGE CITY    CLEAR     70  57  64 CALM      30.13S
SHELDON        CLEAR     57  57 100 CALM      30.12S
SIOUX CITY     CLEAR     67  61  81 E5        30.12R
SPENCER        CLEAR     63  59  87 CALM      30.13R
STORM LAKE     CLEAR     64  63  94 CALM      30.13S
$$

ABBREVIATIONS USED IN REMARKS
   TC - TEMPERATURE IN CELSIUS
  WCI - WIND CHILL INDEX
   HX - HEAT INDEX
  VSB - VISIBILITY




USA.gov is the U.S. government's official web portal to all federal, state and local government web resources and services.